This is the latest recevied weather packets stored in our database for station/object KE9ADS. If no packets are shown the sender has not sent any weather packets the latest 1 day(s).
| Time | Temp. | Humidity | Pressure | Rain* | Wind** | Luminosity | Snow |
|---|---|---|---|---|---|---|---|
| 1836274377 | 20.56° C | 83% | 1019 hPa | 0 mm | 0 m/s | 0 W/m² | - |
| 1836274230 | 20.56° C | 84% | 1019 hPa | 0 mm | 0 m/s | 0 W/m² | - |
| 1778057012 | 6.11° C | 68% | 1015.6 hPa | 0 mm | 0 m/s | 0 W/m² | - |
| 1778056406 | 6.67° C | 68% | 1015.5 hPa | 0 mm | 0 m/s | 0 W/m² | - |
| 1778055817 | 6.67° C | 65% | 1015.5 hPa | 0 mm | 0 m/s | 0 W/m² | - |
| 1778055200 | 7.22° C | 62% | 1015.5 hPa | 0 mm | 0 m/s | 0 W/m² | - |
| 1778054599 | 7.22° C | 60% | 1015.5 hPa | 0 mm | 0 m/s | 0 W/m² | - |
| 1778053994 | 7.22° C | 60% | 1015.5 hPa | 0 mm | 0 m/s | 0 W/m² | - |
| 1778053394 | 7.22° C | 61% | 1015.6 hPa | 0 mm | 0 m/s | 0 W/m² | - |
| 1778052789 | 7.22° C | 63% | 1015.5 hPa | 0 mm | 0 m/s | 0 W/m² | - |
| 1778052189 | 6.11° C | 65% | 1015.4 hPa | 0 mm | 0 m/s | 0 W/m² | - |
| 1778051585 | 6.67° C | 65% | 1015.5 hPa | 0 mm | 0 m/s | 0 W/m² | - |
| 1778050985 | 7.22° C | 62% | 1015.3 hPa | 0 mm | 0 m/s | 0 W/m² | - |
| 1778050379 | 7.78° C | 58% | 1015.4 hPa | 0 mm | 0 m/s | 0 W/m² | - |
| 1778049777 | 7.78° C | 58% | 1015.1 hPa | 0 mm | 0.45 m/s, 289° | 0 W/m² | - |
| 1778049172 | 7.78° C | 57% | 1015.3 hPa | 0 mm | 0 m/s | 0 W/m² | - |
| 1778048568 | 7.78° C | 57% | 1015.3 hPa | 0 mm | 0 m/s | 0 W/m² | - |
| 1778047967 | 8.33° C | 57% | 1015.1 hPa | 0 mm | 0 m/s | 0 W/m² | - |
| 1778047362 | 8.33° C | 55% | 1014.9 hPa | 0 mm | 0 m/s | 0 W/m² | - |
| 1778046761 | 8.33° C | 54% | 1015 hPa | 0 mm | 0 m/s | 0 W/m² | - |
| 1778046161 | 8.89° C | 55% | 1014.8 hPa | 0 mm | 0.45 m/s, 265° | 0 W/m² | - |
| 1778045557 | 8.89° C | 54% | 1015 hPa | 0 mm | 0 m/s | 0 W/m² | - |
| 1778044953 | 8.89° C | 52% | 1014.7 hPa | 0 mm | 0 m/s | 0 W/m² | - |
| 1778044351 | 9.44° C | 52% | 1014.7 hPa | 0 mm | 0 m/s | 0 W/m² | - |
| 1778043747 | 9.44° C | 51% | 1014.7 hPa | 0 mm | 0 m/s | 0 W/m² | - |
* Rain latest hour (hover to see other rain measurements)
** Current wind speed in m/s (hover to see current wind gust speed)